Location: Newark
(0.5300°S, 127.4800°E)
Time: 13:38:30
(UTC+00:00)

Vanguard 3 - Pass Details

Date: 27 September 2019
Orbit: 508 x 3262 km, 33.3° (Epoch: 20 October)

Event Time Altitude Azimuth Distance (km) Brightness Sun altitude
Rises 03:04:36 0° 318° (NW) 6,957 11.9 85.7°
Reaches altitude 10° 03:09:53 10° 327° (NNW) 6,108 11.7 87.0°
Maximum altitude 03:27:26 37° 28° (NNE) 4,178 11.3 88.2°
Drops below altitude 10° 03:41:57 10° 89° (E) 5,162 11.3 84.7°
Sets 03:45:51 0° 97° (E) 5,830 11.5 83.8°
